Volver al catálogo

STARLINK-11164

ActivoComunicacionesVLEO
NORAD 60120·PAYLOAD·🇺🇸 United States

Lanzado Jun 24, 2024 desde Vandenberg Space Force Base

Loading…

Próximos Pases (próximas 24 horas)

TLE

ActualizadoSource: CelesTrak SupGP

Época: Sep 15, 2026, 02:28 UTC

1 60120C 24118H   26258.10326389 -.00056761  00000+0 -46751-3 0  2580
2 60120  53.1573   7.4369 0000955  82.6997 290.2713 15.69740884    11

Sigue STARLINK-11164 en tiempo real con AllMySat

Download on the App Store